| time (UTC) | temp F | wind direction | speed knots | gust knots | rain 1hr in | rain 24hr in | rain mn in | humidity % | barometer mb |
| 20260504184337 | 60 | 94 | 0.9 | 7.8 | 0.00 | 0.00 | 0.00 | 45 | 1015.5 |
| 20260504183837 | 60 | 0 | 0.0 | 7.8 | 0.00 | 0.00 | 0.00 | 45 | 1015.6 |
| 20260504183337 | 60 | 117 | 2.6 | 7.0 | 0.00 | 0.00 | 0.00 | 43 | 1015.6 |
| 20260504182840 | 60 | 52 | 1.7 | 6.1 | 0.00 | 0.00 | 0.00 | 44 | 1015.6 |
| 20260504182335 | 60 | 78 | 0.9 | 6.1 | 0.00 | 0.00 | 0.00 | 43 | 1015.6 |
| 20260504182053 | 60 | 150 | 0.9 | 6.1 | 0.00 | 0.00 | 0.00 | 43 | 1015.6 |
| 20260504181322 | 60 | 109 | 0.9 | 6.1 | 0.00 | 0.00 | 0.00 | 44 | 1015.6 |
| 20260504180823 | 60 | 94 | 0.0 | 8.7 | 0.00 | 0.00 | 0.00 | 42 | 1015.5 |
| 20260504180318 | 60 | 111 | 2.6 | 8.7 | 0.00 | 0.00 | 0.00 | 43 | 1015.6 |
| 20260504175814 | 60 | 105 | 0.9 | 7.0 | 0.00 | 0.00 | 0.00 | 42 | 1015.6 |
| 20260504175536 | 60 | 97 | 2.6 | 7.0 | 0.00 | 0.00 | 0.00 | 45 | 1015.7 |
| 20260504174813 | 59 | 229 | 1.7 | 7.0 | 0.00 | 0.00 | 0.00 | 42 | 1015.6 |
| 20260504174309 | 59 | 117 | 1.7 | 6.1 | 0.00 | 0.00 | 0.00 | 43 | 1015.8 |
| 20260504174031 | 59 | 88 | 1.7 | 7.0 | 0.00 | 0.00 | 0.00 | 44 | 1015.7 |
| 20260504173259 | 58 | 60 | 0.9 | 7.0 | 0.00 | 0.00 | 0.00 | 47 | 1015.7 |
| 20260504172801 | 58 | 63 | 1.7 | 6.1 | 0.00 | 0.00 | 0.00 | 46 | 1015.7 |
| 20260504172259 | 58 | 106 | 1.7 | 7.8 | 0.00 | 0.00 | 0.00 | 48 | 1015.8 |
| 20260504171759 | 57 | 117 | 1.7 | 7.8 | 0.00 | 0.00 | 0.00 | 47 | 1015.9 |
| 20260504171259 | 57 | 168 | 0.0 | 4.3 | 0.00 | 0.00 | 0.00 | 48 | 1015.9 |
| 20260504170755 | 57 | 105 | 0.9 | 4.3 | 0.00 | 0.00 | 0.00 | 49 | 1015.8 |
| 20260504170255 | 57 | 180 | 0.0 | 2.6 | 0.00 | 0.00 | 0.00 | 50 | 1015.8 |
| 20260504160232 | 56 | 55 | 1.7 | 3.5 | 0.00 | 0.00 | 0.00 | 50 | 1015.9 |
| 20260504150947 | 54 | 112 | 0.0 | 3.5 | 0.00 | 0.00 | 0.00 | 52 | 1015.9 |
| 20260504150218 | 53 | 101 | 0.0 | 2.6 | 0.00 | 0.00 | 0.00 | 54 | 1016.0 |
| 20260504141200 | 47 | 109 | 0.0 | 0.9 | 0.00 | 0.00 | 0.00 | 65 | 1016.0 |
| 20260504140700 | 47 | 106 | 0.0 | 0.9 | 0.00 | 0.00 | 0.00 | 68 | 1016.0 |
| 20260504140155 | 46 | 106 | 0.0 | 0.9 | 0.00 | 0.00 | 0.00 | 72 | 1016.2 |
| 20260504130611 | 42 | 169 | 0.0 | 0.0 | 0.00 | 0.00 | 0.00 | 77 | 1015.8 |
| 20260504130112 | 42 | 169 | 0.0 | 0.0 | 0.00 | 0.00 | 0.00 | 76 | 1015.7 |
| 20260504110458 | 46 | 169 | 0.0 | 1.7 | 0.00 | 0.00 | 0.00 | 65 | 1015.1 |
| 20260504100603 | 50 | 105 | 0.0 | 3.5 | 0.00 | 0.00 | 0.00 | 54 | 1014.7 |
| 20260504100105 | 50 | 118 | 0.0 | 2.6 | 0.00 | 0.00 | 0.00 | 53 | 1014.7 |
| 20260504081807 | 53 | 116 | 0.0 | 4.3 | 0.00 | 0.00 | 0.00 | 49 | 1013.8 |
| 20260504081259 | 53 | 342 | 0.0 | 5.2 | 0.00 | 0.00 | 0.00 | 49 | 1013.8 |
| 20260504080800 | 53 | 124 | 0.0 | 7.0 | 0.00 | 0.00 | 0.00 | 49 | 1013.8 |
| 20260504080523 | 53 | 121 | 1.7 | 7.0 | 0.00 | 0.00 | 0.00 | 51 | 1013.8 |
| 20260504060153 | 49 | 288 | 0.0 | 1.7 | 0.00 | 0.00 | 0.00 | 75 | 1011.8 |
| 20260504050615 | 50 | 315 | 0.0 | 0.0 | 0.00 | 0.00 | 0.00 | 76 | 1011.1 |
| 20260504050340 | 50 | 315 | 0.0 | 1.7 | 0.00 | 0.00 | 0.00 | 76 | 1010.9 |
| 20260504045616 | 50 | 315 | 0.0 | 1.7 | 0.00 | 0.00 | 0.00 | 74 | 1010.9 |
| 20260504045111 | 51 | 315 | 0.0 | 0.0 | 0.00 | 0.00 | 0.00 | 74 | 1010.8 |
| 20260504044824 | 51 | 315 | 0.0 | 0.0 | 0.00 | 0.00 | 0.00 | 73 | 1010.7 |
| 20260504044056 | 51 | 315 | 0.0 | 0.0 | 0.00 | 0.00 | 0.00 | 74 | 1010.7 |
| 20260504043557 | 51 | 315 | 0.0 | 0.0 | 0.00 | 0.00 | 0.00 | 75 | 1010.7 |
| 20260504043055 | 51 | 315 | 0.0 | 0.9 | 0.00 | 0.00 | 0.00 | 74 | 1010.8 |
| 20260504042557 | 52 | 315 | 0.0 | 0.9 | 0.00 | 0.00 | 0.00 | 74 | 1010.8 |
| 20260504042052 | 52 | 315 | 0.0 | 1.7 | 0.00 | 0.00 | 0.00 | 74 | 1010.9 |
| 20260504041542 | 53 | 315 | 0.0 | 1.7 | 0.00 | 0.00 | 0.00 | 71 | 1010.7 |
| 20260504041042 | 53 | 315 | 0.0 | 0.0 | 0.00 | 0.00 | 0.00 | 70 | 1010.8 |
| 20260504040544 | 53 | 315 | 0.0 | 1.7 | 0.00 | 0.00 | 0.00 | 72 | 1010.6 |
| 20260504040041 | 53 | 315 | 0.0 | 1.7 | 0.00 | 0.00 | 0.00 | 71 | 1010.6 |
| 20260504035805 | 53 | 315 | 0.0 | 0.0 | 0.00 | 0.00 | 0.00 | 70 | 1010.6 |
| 20260504035043 | 54 | 315 | 0.0 | 1.7 | 0.00 | 0.00 | 0.00 | 70 | 1010.6 |
| 20260504034752 | 54 | 315 | 0.0 | 1.7 | 0.00 | 0.00 | 0.00 | 69 | 1010.6 |
| 20260504034030 | 54 | 315 | 0.0 | 0.9 | 0.00 | 0.00 | 0.00 | 68 | 1010.6 |
| 20260504033738 | 55 | 315 | 0.0 | 0.9 | 0.00 | 0.00 | 0.00 | 68 | 1010.6 |
| 20260504033005 | 55 | 315 | 0.0 | 0.9 | 0.00 | 0.00 | 0.00 | 67 | 1010.5 |
| 20260504032455 | 55 | 315 | 0.0 | 0.9 | 0.00 | 0.00 | 0.00 | 67 | 1010.5 |
| 20260504032203 | 56 | 315 | 0.0 | 2.6 | 0.00 | 0.00 | 0.00 | 67 | 1010.3 |
| 20260504031443 | 56 | 315 | 0.0 | 2.6 | 0.00 | 0.00 | 0.00 | 66 | 1010.3 |
| 20260504030937 | 56 | 315 | 0.0 | 2.6 | 0.00 | 0.00 | 0.00 | 67 | 1010.3 |
| 20260504030441 | 56 | 315 | 0.0 | 1.7 | 0.00 | 0.00 | 0.00 | 65 | 1010.2 |
| 20260504025931 | 57 | 315 | 0.0 | 1.7 | 0.00 | 0.00 | 0.00 | 63 | 1010.2 |
| 20260504025423 | 57 | 317 | 0.0 | 1.7 | 0.00 | 0.00 | 0.00 | 66 | 1010.2 |
| 20260504024923 | 58 | 317 | 0.0 | 0.9 | 0.00 | 0.00 | 0.00 | 64 | 1010.2 |
| 20260504024647 | 58 | 317 | 0.0 | 1.7 | 0.00 | 0.00 | 0.00 | 63 | 1010.2 |
| 20260504024126 | 58 | 317 | 0.0 | 1.7 | 0.00 | 0.00 | 0.00 | 65 | 1010.2 |
| 20260504023404 | 59 | 317 | 0.0 | 1.7 | 0.00 | 0.00 | 0.00 | 62 | 1010.1 |
| 20260504022904 | 60 | 317 | 0.0 | 0.9 | 0.00 | 0.00 | 0.00 | 60 | 1010.1 |
| 20260504022404 | 60 | 317 | 0.0 | 0.0 | 0.00 | 0.00 | 0.00 | 60 | 1010.2 |
| 20260504021904 | 61 | 317 | 0.0 | 1.7 | 0.00 | 0.00 | 0.00 | 58 | 1010.2 |
| 20260504021359 | 63 | 317 | 0.0 | 1.7 | 0.00 | 0.00 | 0.00 | 55 | 1010.2 |
| 20260504020845 | 64 | 317 | 0.0 | 0.0 | 0.00 | 0.00 | 0.00 | 53 | 1010.1 |
| 20260504020342 | 65 | 317 | 0.0 | 0.0 | 0.00 | 0.00 | 0.00 | 51 | 1010.2 |
| 20260504020104 | 65 | 317 | 0.0 | 0.0 | 0.00 | 0.00 | 0.00 | 50 | 1010.2 |
| 20260504015335 | 66 | 317 | 0.0 | 0.0 | 0.00 | 0.00 | 0.00 | 48 | 1010.1 |
| 20260504015057 | 67 | 317 | 0.0 | 0.0 | 0.00 | 0.00 | 0.00 | 47 | 1010.1 |
| 20260504014335 | 67 | 317 | 0.0 | 0.0 | 0.00 | 0.00 | 0.00 | 45 | 1010.2 |
| 20260504013831 | 67 | 317 | 0.0 | 0.9 | 0.00 | 0.00 | 0.00 | 45 | 1010.3 |
| 20260504013323 | 68 | 317 | 0.0 | 0.9 | 0.00 | 0.00 | 0.00 | 45 | 1010.2 |
| 20260504012820 | 68 | 306 | 0.0 | 0.9 | 0.00 | 0.00 | 0.00 | 44 | 1010.2 |
| 20260504012311 | 69 | 343 | 0.0 | 0.0 | 0.00 | 0.00 | 0.00 | 40 | 1010.2 |
| 20260504012029 | 69 | 343 | 0.0 | 0.9 | 0.00 | 0.00 | 0.00 | 42 | 1010.2 |
| 20260504011532 | 69 | 343 | 0.0 | 1.7 | 0.00 | 0.00 | 0.00 | 41 | 1010.2 |
| 20260504010801 | 70 | 342 | 0.0 | 3.5 | 0.00 | 0.00 | 0.00 | 39 | 1010.1 |
| 20260504010301 | 70 | 16 | 0.0 | 5.2 | 0.00 | 0.00 | 0.00 | 36 | 1010.2 |
| 20260504005801 | 70 | 333 | 1.7 | 5.2 | 0.00 | 0.00 | 0.00 | 35 | 1010.2 |
| 20260504005304 | 71 | 263 | 0.0 | 5.2 | 0.00 | 0.00 | 0.00 | 35 | 1010.2 |
| 20260504004752 | 71 | 355 | 0.9 | 4.3 | 0.00 | 0.00 | 0.00 | 34 | 1010.3 |
| 20260504004509 | 72 | 345 | 0.9 | 3.5 | 0.00 | 0.00 | 0.00 | 33 | 1010.6 |
| 20260504003746 | 72 | 28 | 0.0 | 2.6 | 0.00 | 0.00 | 0.00 | 34 | 1010.7 |
| 20260504003242 | 72 | 275 | 0.0 | 7.0 | 0.00 | 0.00 | 0.00 | 32 | 1010.6 |
| 20260504002741 | 72 | 319 | 1.7 | 7.0 | 0.00 | 0.00 | 0.00 | 32 | 1010.7 |
| 20260504002509 | 72 | 236 | 0.0 | 10.4 | 0.00 | 0.00 | 0.00 | 32 | 1010.8 |
| 20260504001737 | 73 | 196 | 1.7 | 10.4 | 0.00 | 0.00 | 0.00 | 32 | 1010.9 |
| 20260504001237 | 73 | 194 | 0.9 | 6.1 | 0.00 | 0.00 | 0.00 | 33 | 1010.8 |
| 20260504000958 | 73 | 207 | 0.0 | 4.3 | 0.00 | 0.00 | 0.00 | 32 | 1010.9 |
| 20260504000223 | 73 | 206 | 0.9 | 4.3 | 0.00 | 0.00 | 0.00 | 31 | 1011.1 |
| 20260503235723 | 73 | 199 | 0.0 | 4.3 | 0.00 | 0.00 | 0.00 | 33 | 1011.1 |
| 20260503235445 | 73 | 269 | 0.9 | 3.5 | 0.00 | 0.00 | 0.00 | 32 | 1011.2 |
| 20260503234718 | 73 | 190 | 0.0 | 3.5 | 0.00 | 0.00 | 0.00 | 33 | 1011.1 |
| 20260503234218 | 72 | 288 | 0.0 | 5.2 | 0.00 | 0.00 | 0.00 | 32 | 1011.2 |
| 20260503233716 | 72 | 340 | 0.9 | 5.2 | 0.00 | 0.00 | 0.00 | 32 | 1011.2 |
| 20260503233431 | 72 | 198 | 0.0 | 5.2 | 0.00 | 0.00 | 0.00 | 32 | 1011.4 |
| 20260503232704 | 72 | 236 | 1.7 | 5.2 | 0.00 | 0.00 | 0.00 | 32 | 1011.5 |
| 20260503232149 | 72 | 21 | 0.9 | 5.2 | 0.00 | 0.00 | 0.00 | 33 | 1011.6 |
| 20260503231649 | 72 | 334 | 0.0 | 4.3 | 0.00 | 0.00 | 0.00 | 34 | 1011.7 |
| 20260503231151 | 72 | 348 | 0.0 | 6.1 | 0.00 | 0.00 | 0.00 | 33 | 1011.7 |
| 20260503230911 | 72 | 157 | 0.9 | 6.1 | 0.00 | 0.00 | 0.00 | 34 | 1011.6 |
| 20260503230149 | 72 | 300 | 0.9 | 8.7 | 0.00 | 0.00 | 0.00 | 34 | 1011.7 |
| 20260503225644 | 71 | 137 | 2.6 | 8.7 | 0.00 | 0.00 | 0.00 | 34 | 1011.7 |
| 20260503225140 | 72 | 189 | 2.6 | 7.8 | 0.00 | 0.00 | 0.00 | 34 | 1011.8 |
| 20260503224640 | 72 | 183 | 0.0 | 7.8 | 0.00 | 0.00 | 0.00 | 34 | 1011.8 |
| 20260503224140 | 72 | 355 | 1.7 | 6.1 | 0.00 | 0.00 | 0.00 | 34 | 1011.8 |
| 20260503223640 | 72 | 295 | 1.7 | 6.1 | 0.00 | 0.00 | 0.00 | 35 | 1011.8 |
| 20260503223140 | 72 | 340 | 0.9 | 7.0 | 0.00 | 0.00 | 0.00 | 34 | 1011.9 |
| 20260503222631 | 72 | 275 | 1.7 | 7.0 | 0.00 | 0.00 | 0.00 | 34 | 1011.9 |
| 20260503222126 | 72 | 346 | 0.9 | 9.6 | 0.00 | 0.00 | 0.00 | 34 | 1012.0 |
| 20260503221843 | 72 | 153 | 0.0 | 9.6 | 0.00 | 0.00 | 0.00 | 34 | 1012.1 |
| 20260503221116 | 72 | 110 | 0.0 | 7.8 | 0.00 | 0.00 | 0.00 | 34 | 1012.2 |
| 20260503220616 | 72 | 203 | 0.9 | 7.8 | 0.00 | 0.00 | 0.00 | 35 | 1012.5 |
| 20260503220116 | 72 | 178 | 0.9 | 7.8 | 0.00 | 0.00 | 0.00 | 35 | 1012.6 |
| 20260503215616 | 72 | 126 | 0.0 | 5.2 | 0.00 | 0.00 | 0.00 | 34 | 1012.6 |
| 20260503215604 | 72 | 306 | 0.0 | 4.3 | 0.00 | 0.00 | 0.00 | 34 | 1012.7 |
| 20260503214602 | 72 | 313 | 0.0 | 7.0 | 0.00 | 0.00 | 0.00 | 34 | 1012.8 |
| 20260503214056 | 72 | 300 | 1.7 | 7.0 | 0.00 | 0.00 | 0.00 | 34 | 1012.9 |
| 20260503213556 | 72 | 329 | 0.0 | 5.2 | 0.00 | 0.00 | 0.00 | 34 | 1013.0 |
| 20260503213100 | 72 | 227 | 0.9 | 7.0 | 0.00 | 0.00 | 0.00 | 35 | 1013.0 |
| 20260503212538 | 72 | 322 | 0.0 | 4.3 | 0.00 | 0.00 | 0.00 | 34 | 1013.1 |
| 20260503212037 | 71 | 178 | 0.0 | 10.4 | 0.00 | 0.00 | 0.00 | 34 | 1013.3 |
| 20260503211537 | 71 | 219 | 1.7 | 10.4 | 0.00 | 0.00 | 0.00 | 33 | 1013.3 |
| 20260503211037 | 71 | 141 | 0.0 | 7.8 | 0.00 | 0.00 | 0.00 | 35 | 1013.4 |
| 20260503211019 | 71 | 61 | 1.7 | 7.0 | 0.00 | 0.00 | 0.00 | 34 | 1013.4 |
| 20260503210032 | 71 | 146 | 3.5 | 7.0 | 0.00 | 0.00 | 0.00 | 35 | 1013.4 |
| 20260503205754 | 71 | 189 | 1.7 | 8.7 | 0.00 | 0.00 | 0.00 | 34 | 1013.5 |
| 20260503205304 | 71 | 180 | 2.6 | 8.7 | 0.00 | 0.00 | 0.00 | 34 | 1013.5 |
| 20260503204533 | 71 | 149 | 1.7 | 5.2 | 0.00 | 0.00 | 0.00 | 34 | 1013.6 |
| 20260503204031 | 71 | 26 | 1.7 | 7.0 | 0.00 | 0.00 | 0.00 | 35 | 1013.7 |
| 20260503203753 | 71 | 237 | 2.6 | 7.0 | 0.00 | 0.00 | 0.00 | 34 | 1013.7 |
| 20260503203025 | 71 | 318 | 0.0 | 4.3 | 0.00 | 0.00 | 0.00 | 37 | 1013.7 |
| 20260503202523 | 71 | 40 | 0.0 | 10.4 | 0.00 | 0.00 | 0.00 | 33 | 1013.8 |
| 20260503202019 | 71 | 325 | 1.7 | 11.3 | 0.00 | 0.00 | 0.00 | 35 | 1013.8 |
| 20260503201519 | 71 | 21 | 2.6 | 11.3 | 0.00 | 0.00 | 0.00 | 34 | 1013.8 |
| 20260503201510 | 71 | 342 | 0.9 | 11.3 | 0.00 | 0.00 | 0.00 | 34 | 1013.9 |
| 20260503200519 | 71 | 192 | 1.7 | 11.3 | 0.00 | 0.00 | 0.00 | 33 | 1013.9 |
| 20260503200022 | 71 | 316 | 0.9 | 5.2 | 0.00 | 0.00 | 0.00 | 35 | 1014.0 |
| 20260503195518 | 70 | 336 | 0.0 | 8.7 | 0.00 | 0.00 | 0.00 | 33 | 1014.1 |
| 20260503195015 | 70 | 155 | 2.6 | 8.7 | 0.00 | 0.00 | 0.00 | 33 | 1014.3 |
| 20260503194510 | 70 | 172 | 0.9 | 5.2 | 0.00 | 0.00 | 0.00 | 35 | 1014.4 |
| 20260503194009 | 69 | 331 | 0.0 | 7.8 | 0.00 | 0.00 | 0.00 | 34 | 1014.6 |
| 20260503193737 | 69 | 349 | 1.7 | 7.8 | 0.00 | 0.00 | 0.00 | 34 | 1014.6 |
| 20260503193010 | 69 | 285 | 0.9 | 7.0 | 0.00 | 0.00 | 0.00 | 34 | 1014.6 |
| 20260503192510 | 69 | 333 | 0.9 | 7.8 | 0.00 | 0.00 | 0.00 | 34 | 1014.7 |
| 20260503192006 | 69 | 213 | 1.7 | 7.8 | 0.00 | 0.00 | 0.00 | 34 | 1014.8 |
| 20260503191502 | 69 | 0 | 0.9 | 5.2 | 0.00 | 0.00 | 0.00 | 37 | 1014.7 |
| 20260503191001 | 69 | 180 | 0.9 | 6.1 | 0.00 | 0.00 | 0.00 | 35 | 1014.9 |
| 20260503190501 | 69 | 300 | 1.7 | 6.1 | 0.00 | 0.00 | 0.00 | 35 | 1014.9 |
| 20260503190001 | 69 | 86 | 0.9 | 6.1 | 0.00 | 0.00 | 0.00 | 36 | 1014.9 |
| 20260503185500 | 68 | 286 | 0.9 | 5.2 | 0.00 | 0.00 | 0.00 | 35 | 1015.0 |
| 20260503185004 | 68 | 198 | 0.0 | 7.8 | 0.00 | 0.00 | 0.00 | 36 | 1015.1 |